Location: LDNL
(36.4545°S, 141.6685°E)
Time: 02:51:29
(UTC+10:00)

Courier 1B Rocket - Pass Details

Date: 29 May 2024
Orbit: 920 x 1201 km, 28.3° (Epoch: 17 May)

Event Time Altitude Azimuth Distance (km) Brightness Sun altitude
Exits shadow 06:50:24 - 282° (WNW) 3,670 7.5 -8.9°
Reaches altitude 10° 06:52:52 10° 295° (WNW) 3,117 7.2 -8.5°
Maximum altitude 06:57:34 17° 333° (NNW) 2,621 7.2 -7.6°
Drops below altitude 10° 07:02:17 10° 10° (N) 3,126 8.1 -6.7°
Sets 07:06:17 0° 29° (NNE) 4,070 9.2 -6.0°
